Location: *
(48.8489°N, 2.3218°E)
Time: 23:07:37
(UTC+00:00)

Cosmos 962 Rocket - Pass Details

Date: 23 August 2019
Orbit: 950 x 1000 km, 82.9° (Epoch: 20 September)

Event Time Altitude Azimuth Distance (km) Brightness Sun altitude
Rises 22:36:43 0° 349° (N) 3,641 8.7 -27.5°
Reaches altitude 10° 22:39:13 10° 348° (NNW) 2,695 7.8 -27.7°
Maximum altitude 22:45:22 78° 264° (W) 988 4.4 -28.0°
Enters shadow 22:45:54 72° 216° (SW) 1,011 4.3 -28.0°
